"Sample Date","Sample Time","Sample Value","Units","Flow Rate","Sample Interval","Number Channels","Micron Size 0","Counts/Channel 0","Micron Size 1","Counts/Channel 1","Micron Size 2","Counts/Channel 2","Micron Size 3","Counts/Channel 3","Micron Size 4","Counts/Channel 4","Micron Size 5","Counts/Channel 5","Micron Size 6","Counts/Channel 6","Micron Size 7","Counts/Channel 7","Micron Size 8","Counts/Channel 8","Micron Size 9","Counts/Channel 9","Micron Size 10","Counts/Channel 10","Micron Size 11","Counts/Channel 11","Micron Size 12","Counts/Channel 12","Micron Size 13","Counts/Channel 13","Micron Size 14","Counts/Channel 14","Micron Size 15","Counts/Channel 15","Micron Size 16","Counts/Channel 16","Micron Size 17","Counts/Channel 17","Micron Size 18","Counts/Channel 18","Micron Size 19","Counts/Channel 19","Micron Size 20","Counts/Channel 20","Micron Size 21","Counts/Channel 21","Micron Size 22","Counts/Channel 22","Micron Size 23","Counts/Channel 23","Micron Size 24","Counts/Channel 24","Micron Size 25","Counts/Channel 25","Micron Size 26","Counts/Channel 26","Micron Size 27","Counts/Channel 27","Micron Size 28","Counts/Channel 28","Micron Size 29","Counts/Channel 29","Micron Size 30","Counts/Channel 30","Micron Size 31","Counts/Channel 31"
"03/08/08","00:00:05",10697.000,"cc",28381.873,6.00,6,0.100,8413.000,0.200,2183.000,0.300,95.000,0.500,6.000,1.000,0,5.000,0
"03/08/08","00:00:11",10346.000,"cc",28285.652,6.00,6,0.100,8150.000,0.200,2115.000,0.300,77.000,0.500,4.000,1.000,0,5.000,0
"03/08/08","00:00:17",10264.000,"cc",28251.938,6.00,6,0.100,8031.000,0.200,2139.000,0.300,86.000,0.500,8.000,1.000,0,5.000,0
"03/08/08","00:00:23",10773.000,"cc",28341.199,6.00,6,0.100,8405.000,0.200,2259.000,0.300,108.000,0.500,1.000,1.000,0,5.000,0
"03/08/08","00:00:29",10657.000,"cc",28266.315,6.00,6,0.100,8346.000,0.200,2222.000,0.300,87.000,0.500,2.000,1.000,0,5.000,0
"03/08/08","00:00:35",10272.000,"cc",28287.953,6.00,6,0.100,8162.000,0.200,2022.000,0.300,85.000,0.500,3.000,1.000,0,5.000,0
"03/08/08","00:00:41",10110.000,"cc",28302.729,6.00,6,0.100,8072.000,0.200,1941.000,0.300,93.000,0.500,4.000,1.000,0,5.000,0
"03/08/08","00:00:47",11056.000,"cc",28328.607,6.00,6,0.100,8765.000,0.200,2197.000,0.300,85.000,0.500,9.000,1.000,0,5.000,0
"03/08/08","00:00:53",10967.000,"cc",28339.742,6.00,6,0.100,8629.000,0.200,2234.000,0.300,96.000,0.500,8.000,1.000,0,5.000,0
"03/08/08","00:00:59",11036.000,"cc",28313.803,6.00,6,0.100,8658.000,0.200,2262.000,0.300,110.000,0.500,6.000,1.000,0,5.000,0
"03/08/08","00:01:05",10662.000,"cc",28309.066,6.00,6,0.100,8430.000,0.200,2161.000,0.300,68.000,0.500,3.000,1.000,0,5.000,0
"03/08/08","00:01:11",10854.000,"cc",28307.699,6.00,6,0.100,8608.000,0.200,2144.000,0.300,101.000,0.500,1.000,1.000,0,5.000,0
"03/08/08","00:01:17",11185.000,"cc",28287.955,6.00,6,0.100,8812.000,0.200,2239.000,0.300,120.000,0.500,13.000,1.000,1.000,5.000,0
"03/08/08","00:01:23",10386.000,"cc",28347.096,6.00,6,0.100,8276.000,0.200,2004.000,0.300,92.000,0.500,14.000,1.000,0,5.000,0
"03/08/08","00:01:29",11006.000,"cc",28325.313,6.00,6,0.100,8610.000,0.200,2271.000,0.300,114.000,0.500,11.000,1.000,0,5.000,0
"03/08/08","00:01:35",10347.000,"cc",28319.662,6.00,6,0.100,8154.000,0.200,2086.000,0.300,96.000,0.500,11.000,1.000,0,5.000,0
"03/08/08","00:01:41",9709.000,"cc",28311.391,6.00,6,0.100,7631.000,0.200,1965.000,0.300,102.000,0.500,11.000,1.000,0,5.000,0
"03/08/08","00:01:47",10592.000,"cc",28283.992,6.00,6,0.100,8218.000,0.200,2211.000,0.300,143.000,0.500,19.000,1.000,1.000,5.000,0
"03/08/08","00:01:53",10630.000,"cc",28255.297,6.00,6,0.100,8226.000,0.200,2239.000,0.300,151.000,0.500,13.000,1.000,1.000,5.000,0
"03/08/08","00:01:59",10252.000,"cc",28341.123,6.00,6,0.100,7832.000,0.200,2250.000,0.300,155.000,0.500,15.000,1.000,0,5.000,0
"03/08/08","00:02:05",9277.000,"cc",28304.754,6.00,6,0.100,7122.000,0.200,1990.000,0.300,141.000,0.500,24.000,1.000,0,5.000,0
"03/08/08","00:02:11",10187.000,"cc",28361.801,6.00,6,0.100,7926.000,0.200,2087.000,0.300,158.000,0.500,13.000,1.000,3.000,5.000,0
"03/08/08","00:02:17",10527.000,"cc",28306.840,6.00,6,0.100,8102.000,0.200,2236.000,0.300,165.000,0.500,23.000,1.000,1.000,5.000,0
"03/08/08","00:02:23",11042.000,"cc",28282.354,6.00,6,0.100,8440.000,0.200,2406.000,0.300,173.000,0.500,21.000,1.000,2.000,5.000,0
"03/08/08","00:02:29",10373.000,"cc",28295.967,6.00,6,0.100,7972.000,0.200,2234.000,0.300,150.000,0.500,17.000,1.000,0,5.000,0
"03/08/08","00:02:35",10446.000,"cc",28356.859,6.00,6,0.100,7960.000,0.200,2340.000,0.300,132.000,0.500,13.000,1.000,1.000,5.000,0
"03/08/08","00:02:41",10938.000,"cc",28262.236,6.00,6,0.100,8338.000,0.200,2382.000,0.300,184.000,0.500,34.000,1.000,0,5.000,0
"03/08/08","00:02:47",10937.000,"cc",28313.227,6.00,6,0.100,8342.000,0.200,2375.000,0.300,185.000,0.500,33.000,1.000,2.000,5.000,0
"03/08/08","00:02:53",11093.000,"cc",28384.879,6.00,6,0.100,8513.000,0.200,2409.000,0.300,143.000,0.500,28.000,1.000,0,5.000,0
"03/08/08","00:02:59",9858.000,"cc",28315.606,6.00,6,0.100,7670.000,0.200,2049.000,0.300,123.000,0.500,16.000,1.000,0,5.000,0
"03/08/08","00:03:05",10174.000,"cc",28261.297,6.00,6,0.100,7704.000,0.200,2292.000,0.300,157.000,0.500,21.000,1.000,0,5.000,0
"03/08/08","00:03:11",10107.000,"cc",28283.572,6.00,6,0.100,7745.000,0.200,2186.000,0.300,151.000,0.500,24.000,1.000,1.000,5.000,0
"03/08/08","00:03:17",9386.000,"cc",28342.065,6.00,6,0.100,7244.000,0.200,2008.000,0.300,120.000,0.500,14.000,1.000,0,5.000,0
"03/08/08","00:03:23",9815.000,"cc",28357.535,6.00,6,0.100,7612.000,0.200,2058.000,0.300,127.000,0.500,17.000,1.000,1.000,5.000,0
"03/08/08","00:03:29",9739.000,"cc",28248.826,6.00,6,0.100,7508.000,0.200,2053.000,0.300,160.000,0.500,17.000,1.000,1.000,5.000,0
"03/08/08","00:03:35",9884.000,"cc",28346.436,6.00,6,0.100,7692.000,0.200,1993.000,0.300,177.000,0.500,19.000,1.000,3.000,5.000,0
"03/08/08","00:03:41",9266.000,"cc",28331.367,6.00,6,0.100,7142.000,0.200,1968.000,0.300,137.000,0.500,18.000,1.000,1.000,5.000,0
"03/08/08","00:03:47",9217.000,"cc",28257.664,6.00,6,0.100,7113.000,0.200,1945.000,0.300,137.000,0.500,22.000,1.000,0,5.000,0
"03/08/08","00:03:53",8975.000,"cc",28342.904,6.00,6,0.100,7019.000,0.200,1828.000,0.300,110.000,0.500,18.000,1.000,0,5.000,0
"03/08/08","00:03:59",7337.000,"cc",28348.883,6.00,6,0.100,5778.000,0.200,1455.000,0.300,93.000,0.500,10.000,1.000,1.000,5.000,0
"03/08/08","00:04:05",7188.000,"cc",28286.766,6.00,6,0.100,5688.000,0.200,1390.000,0.300,90.000,0.500,19.000,1.000,1.000,5.000,0
"03/08/08","00:04:11",7859.000,"cc",28297.461,6.00,6,0.100,6193.000,0.200,1552.000,0.300,98.000,0.500,16.000,1.000,0,5.000,0
"03/08/08","00:04:17",9101.000,"cc",28243.813,6.00,6,0.100,7104.000,0.200,1838.000,0.300,133.000,0.500,25.000,1.000,1.000,5.000,0
"03/08/08","00:04:23",9542.000,"cc",28280.404,6.00,6,0.100,7376.000,0.200,2002.000,0.300,138.000,0.500,25.000,1.000,1.000,5.000,0
"03/08/08","00:04:29",9983.000,"cc",28376.576,6.00,6,0.100,7694.000,0.200,2106.000,0.300,165.000,0.500,17.000,1.000,1.000,5.000,0
"03/08/08","00:04:35",9660.000,"cc",28303.438,6.00,6,0.100,7537.000,0.200,1970.000,0.300,130.000,0.500,22.000,1.000,1.000,5.000,0
"03/08/08","00:04:41",9963.000,"cc",28359.922,6.00,6,0.100,7699.000,0.200,2079.000,0.300,151.000,0.500,31.000,1.000,3.000,5.000,0
"03/08/08","00:04:47",9446.000,"cc",28274.785,6.00,6,0.100,7333.000,0.200,1966.000,0.300,135.000,0.500,12.000,1.000,0,5.000,0
"03/08/08","00:04:53",9942.000,"cc",28310.199,6.00,6,0.100,7620.000,0.200,2137.000,0.300,159.000,0.500,26.000,1.000,0,5.000,0
"03/08/08","00:04:59",9392.000,"cc",28328.951,6.00,6,0.100,7288.000,0.200,1930.000,0.300,147.000,0.500,27.000,1.000,0,5.000,0
"03/08/08","00:05:05",9486.000,"cc",28288.621,6.00,6,0.100,7350.000,0.200,1976.000,0.300,142.000,0.500,17.000,1.000,1.000,5.000,0
"03/08/08","00:05:11",9658.000,"cc",28320.336,6.00,6,0.100,7415.000,0.200,2067.000,0.300,158.000,0.500,18.000,1.000,0,5.000,0
"03/08/08","00:05:17",9420.000,"cc",28323.922,6.00,6,0.100,7174.000,0.200,2058.000,0.300,162.000,0.500,26.000,1.000,0,5.000,0
"03/08/08","00:05:23",9416.000,"cc",28366.397,6.00,6,0.100,7233.000,0.200,1986.000,0.300,162.000,0.500,34.000,1.000,1.000,5.000,0
"03/08/08","00:05:29",9428.000,"cc",28305.941,6.00,6,0.100,7193.000,0.200,2024.000,0.300,180.000,0.500,31.000,1.000,0,5.000,0
"03/08/08","00:05:35",8582.000,"cc",28368.094,6.00,6,0.100,6600.000,0.200,1811.000,0.300,146.000,0.500,24.000,1.000,1.000,5.000,0
"03/08/08","00:05:41",8467.000,"cc",28253.959,6.00,6,0.100,6521.000,0.200,1774.000,0.300,143.000,0.500,27.000,1.000,2.000,5.000,0
"03/08/08","00:05:47",8010.000,"cc",28262.566,6.00,6,0.100,6285.000,0.200,1588.000,0.300,115.000,0.500,21.000,1.000,1.000,5.000,0
"03/08/08","00:05:53",7299.000,"cc",28343.691,6.00,6,0.100,5840.000,0.200,1339.000,0.300,110.000,0.500,10.000,1.000,0,5.000,0
"03/08/08","00:05:59",7478.000,"cc",28261.656,6.00,6,0.100,5915.000,0.200,1442.000,0.300,101.000,0.500,20.000,1.000,0,5.000,0
"03/08/08","00:06:05",7458.000,"cc",28333.861,6.00,6,0.100,5931.000,0.200,1416.000,0.300,97.000,0.500,11.000,1.000,3.000,5.000,0
"03/08/08","00:06:11",8143.000,"cc",28327.633,6.00,6,0.100,6381.000,0.200,1633.000,0.300,103.000,0.500,25.000,1.000,1.000,5.000,0
"03/08/08","00:06:17",8237.000,"cc",28330.584,6.00,6,0.100,6421.000,0.200,1655.000,0.300,137.000,0.500,23.000,1.000,1.000,5.000,0
"03/08/08","00:06:23",8501.000,"cc",28352.477,6.00,6,0.100,6623.000,0.200,1697.000,0.300,154.000,0.500,27.000,1.000,0,5.000,0
"03/08/08","00:06:29",8587.000,"cc",28309.922,6.00,6,0.100,6721.000,0.200,1694.000,0.300,151.000,0.500,20.000,1.000,1.000,5.000,0
"03/08/08","00:06:35",8329.000,"cc",28333.084,6.00,6,0.100,6493.000,0.200,1661.000,0.300,140.000,0.500,34.000,1.000,1.000,5.000,0
"03/08/08","00:06:41",7791.000,"cc",28315.975,6.00,6,0.100,6114.000,0.200,1539.000,0.300,120.000,0.500,14.000,1.000,4.000,5.000,0
"03/08/08","00:06:47",8107.000,"cc",28305.410,6.00,6,0.100,6351.000,0.200,1633.000,0.300,107.000,0.500,16.000,1.000,0,5.000,0
"03/08/08","00:06:53",8505.000,"cc",28275.600,6.00,6,0.100,6607.000,0.200,1704.000,0.300,155.000,0.500,39.000,1.000,0,5.000,0
"03/08/08","00:06:59",7958.000,"cc",28268.873,6.00,6,0.100,6280.000,0.200,1513.000,0.300,139.000,0.500,26.000,1.000,0,5.000,0
"03/08/08","00:07:05",8196.000,"cc",28296.900,6.00,6,0.100,6388.000,0.200,1646.000,0.300,123.000,0.500,35.000,1.000,4.000,5.000,0
"03/08/08","00:07:11",7159.000,"cc",28319.033,6.00,6,0.100,5660.000,0.200,1398.000,0.300,83.000,0.500,18.000,1.000,0,5.000,0
"03/08/08","00:07:17",6691.000,"cc",28432.047,6.00,6,0.100,5400.000,0.200,1195.000,0.300,86.000,0.500,10.000,1.000,0,5.000,0
"03/08/08","00:07:23",6184.000,"cc",28374.234,6.00,6,0.100,5016.000,0.200,1098.000,0.300,56.000,0.500,13.000,1.000,1.000,5.000,0
"03/08/08","00:07:29",5676.000,"cc",28337.977,6.00,6,0.100,4638.000,0.200,977.000,0.300,53.000,0.500,8.000,1.000,0,5.000,0
"03/08/08","00:07:35",6232.000,"cc",28226.836,6.00,6,0.100,5078.000,0.200,1077.000,0.300,63.000,0.500,14.000,1.000,0,5.000,0
"03/08/08","00:07:41",6723.000,"cc",28321.363,6.00,6,0.100,5384.000,0.200,1254.000,0.300,73.000,0.500,11.000,1.000,1.000,5.000,0
"03/08/08","00:07:47",6745.000,"cc",28297.865,6.00,6,0.100,5388.000,0.200,1269.000,0.300,67.000,0.500,20.000,1.000,1.000,5.000,0
"03/08/08","00:07:53",6976.000,"cc",28281.625,6.00,6,0.100,5553.000,0.200,1304.000,0.300,103.000,0.500,14.000,1.000,2.000,5.000,0
"03/08/08","00:07:59",6695.000,"cc",28357.535,6.00,6,0.100,5368.000,0.200,1226.000,0.300,85.000,0.500,16.000,1.000,0,5.000,0
"03/08/08","00:08:05",6712.000,"cc",28312.324,6.00,6,0.100,5405.000,0.200,1211.000,0.300,79.000,0.500,17.000,1.000,0,5.000,0
"03/08/08","00:08:11",6673.000,"cc",28276.940,6.00,6,0.100,5321.000,0.200,1241.000,0.300,92.000,0.500,19.000,1.000,0,5.000,0
"03/08/08","00:08:17",6767.000,"cc",28309.449,6.00,6,0.100,5437.000,0.200,1225.000,0.300,79.000,0.500,25.000,1.000,1.000,5.000,0
"03/08/08","00:08:23",7579.000,"cc",28340.986,6.00,6,0.100,6032.000,0.200,1410.000,0.300,116.000,0.500,19.000,1.000,2.000,5.000,0
"03/08/08","00:08:29",7454.000,"cc",28326.660,6.00,6,0.100,5881.000,0.200,1423.000,0.300,111.000,0.500,38.000,1.000,1.000,5.000,0
"03/08/08","00:08:35",7136.000,"cc",28278.178,6.00,6,0.100,5682.000,0.200,1322.000,0.300,108.000,0.500,24.000,1.000,0,5.000,0
"03/08/08","00:08:41",6663.000,"cc",28267.256,6.00,6,0.100,5354.000,0.200,1192.000,0.300,88.000,0.500,27.000,1.000,2.000,5.000,0
"03/08/08","00:08:47",6806.000,"cc",28324.672,6.00,6,0.100,5381.000,0.200,1298.000,0.300,102.000,0.500,23.000,1.000,2.000,5.000,0
"03/08/08","00:08:53",6470.000,"cc",28336.383,6.00,6,0.100,5191.000,0.200,1169.000,0.300,90.000,0.500,18.000,1.000,2.000,5.000,0
"03/08/08","00:08:59",6153.000,"cc",28305.690,6.00,6,0.100,4910.000,0.200,1131.000,0.300,80.000,0.500,32.000,1.000,0,5.000,0
"03/08/08","00:09:05",6991.000,"cc",28317.301,6.00,6,0.100,5634.000,0.200,1235.000,0.300,92.000,0.500,29.000,1.000,1.000,5.000,0
"03/08/08","00:09:11",7121.000,"cc",28304.775,6.00,6,0.100,5723.000,0.200,1285.000,0.300,85.000,0.500,28.000,1.000,0,5.000,0
"03/08/08","00:09:17",6830.000,"cc",28308.797,6.00,6,0.100,5496.000,0.200,1228.000,0.300,87.000,0.500,18.000,1.000,1.000,5.000,0
"03/08/08","00:09:23",7480.000,"cc",28283.375,6.00,6,0.100,6049.000,0.200,1315.000,0.300,94.000,0.500,20.000,1.000,2.000,5.000,0
"03/08/08","00:09:29",7633.000,"cc",28377.133,6.00,6,0.100,6070.000,0.200,1421.000,0.300,116.000,0.500,23.000,1.000,3.000,5.000,0
"03/08/08","00:09:35",7584.000,"cc",28298.688,6.00,6,0.100,6005.000,0.200,1409.000,0.300,133.000,0.500,34.000,1.000,3.000,5.000,0
"03/08/08","00:09:41",7281.000,"cc",28226.258,6.00,6,0.100,5741.000,0.200,1385.000,0.300,118.000,0.500,37.000,1.000,0,5.000,0
"03/08/08","00:09:47",6846.000,"cc",28296.856,6.00,6,0.100,5397.000,0.200,1286.000,0.300,131.000,0.500,28.000,1.000,4.000,5.000,0
"03/08/08","00:09:53",5874.000,"cc",28334.000,6.00,6,0.100,4643.000,0.200,1115.000,0.300,88.000,0.500,26.000,1.000,2.000,5.000,0
"03/08/08","00:09:59",6651.000,"cc",28304.119,6.00,6,0.100,5288.000,0.200,1251.000,0.300,96.000,0.500,15.000,1.000,1.000,5.000,0
"03/08/08","00:10:05",6802.000,"cc",28361.654,6.00,6,0.100,5418.000,0.200,1279.000,0.300,86.000,0.500,17.000,1.000,2.000,5.000,0
"03/08/08","00:10:11",6610.000,"cc",28378.816,6.00,6,0.100,5320.000,0.200,1170.000,0.300,99.000,0.500,20.000,1.000,1.000,5.000,0
"03/08/08","00:10:17",5898.000,"cc",28351.522,6.00,6,0.100,4747.000,0.200,1070.000,0.300,67.000,0.500,13.000,1.000,1.000,5.000,0
"03/08/08","00:10:23",6212.000,"cc",28236.697,6.00,6,0.100,5029.000,0.200,1082.000,0.300,80.000,0.500,19.000,1.000,2.000,5.000,0
"03/08/08","00:10:29",6433.000,"cc",28343.551,6.00,6,0.100,5219.000,0.200,1112.000,0.300,72.000,0.500,29.000,1.000,1.000,5.000,0
"03/08/08","00:10:35",6669.000,"cc",28358.426,6.00,6,0.100,5390.000,0.200,1164.000,0.300,96.000,0.500,18.000,1.000,1.000,5.000,0
"03/08/08","00:10:41",6104.000,"cc",28302.115,6.00,6,0.100,5007.000,0.200,1008.000,0.300,69.000,0.500,19.000,1.000,1.000,5.000,0
"03/08/08","00:10:47",6206.000,"cc",28283.863,6.00,6,0.100,5026.000,0.200,1083.000,0.300,81.000,0.500,15.000,1.000,1.000,5.000,0
"03/08/08","00:10:53",6508.000,"cc",28333.158,6.00,6,0.100,5256.000,0.200,1153.000,0.300,80.000,0.500,16.000,1.000,3.000,5.000,0
"03/08/08","00:10:59",6619.000,"cc",28299.272,6.00,6,0.100,5282.000,0.200,1228.000,0.300,92.000,0.500,15.000,1.000,2.000,5.000,0
"03/08/08","00:11:05",5829.000,"cc",28325.029,6.00,6,0.100,4740.000,0.200,1004.000,0.300,68.000,0.500,16.000,1.000,1.000,5.000,0
"03/08/08","00:11:11",5425.000,"cc",28361.070,6.00,6,0.100,4392.000,0.200,956.000,0.300,61.000,0.500,16.000,1.000,0,5.000,0
"03/08/08","00:11:17",6065.000,"cc",28308.856,6.00,6,0.100,4928.000,0.200,1066.000,0.300,58.000,0.500,13.000,1.000,0,5.000,0
"03/08/08","00:11:23",6365.000,"cc",28303.383,6.00,6,0.100,5228.000,0.200,1076.000,0.300,56.000,0.500,4.000,1.000,1.000,5.000,0
"03/08/08","00:11:29",6359.000,"cc",28285.326,6.00,6,0.100,5163.000,0.200,1113.000,0.300,66.000,0.500,16.000,1.000,1.000,5.000,0
"03/08/08","00:11:35",6372.000,"cc",28317.406,6.00,6,0.100,5226.000,0.200,1063.000,0.300,69.000,0.500,13.000,1.000,1.000,5.000,0
"03/08/08","00:11:41",6592.000,"cc",28299.449,6.00,6,0.100,5356.000,0.200,1131.000,0.300,90.000,0.500,15.000,1.000,0,5.000,0
"03/08/08","00:11:47",6858.000,"cc",28358.426,6.00,6,0.100,5574.000,0.200,1178.000,0.300,90.000,0.500,15.000,1.000,1.000,5.000,0
"03/08/08","00:11:53",6874.000,"cc",28316.191,6.00,6,0.100,5521.000,0.200,1247.000,0.300,84.000,0.500,22.000,1.000,0,5.000,0
"03/08/08","00:11:59",6714.000,"cc",28306.410,6.00,6,0.100,5357.000,0.200,1250.000,0.300,91.000,0.500,16.000,1.000,0,5.000,0
"03/08/08","00:12:05",6330.000,"cc",28334.691,6.00,6,0.100,5094.000,0.200,1137.000,0.300,88.000,0.500,11.000,1.000,0,5.000,0
"03/08/08","00:12:11",6732.000,"cc",28324.754,6.00,6,0.100,5393.000,0.200,1210.000,0.300,94.000,0.500,35.000,1.000,0,5.000,0
"03/08/08","00:12:17",6859.000,"cc",28255.176,6.00,6,0.100,5548.000,0.200,1189.000,0.300,91.000,0.500,29.000,1.000,2.000,5.000,0
"03/08/08","00:12:23",7234.000,"cc",28264.141,6.00,6,0.100,5779.000,0.200,1346.000,0.300,90.000,0.500,17.000,1.000,2.000,5.000,0
"03/08/08","00:12:29",7904.000,"cc",28294.297,6.00,6,0.100,6225.000,0.200,1488.000,0.300,149.000,0.500,40.000,1.000,2.000,5.000,0
"03/08/08","00:12:35",7972.000,"cc",28366.865,6.00,6,0.100,6302.000,0.200,1476.000,0.300,146.000,0.500,46.000,1.000,2.000,5.000,0
"03/08/08","00:12:41",7818.000,"cc",28246.494,6.00,6,0.100,6255.000,0.200,1438.000,0.300,103.000,0.500,21.000,1.000,1.000,5.000,0
"03/08/08","00:12:47",6692.000,"cc",28385.570,6.00,6,0.100,5466.000,0.200,1136.000,0.300,74.000,0.500,14.000,1.000,2.000,5.000,0
"03/08/08","00:12:53",7137.000,"cc",28298.131,6.00,6,0.100,5752.000,0.200,1277.000,0.300,93.000,0.500,15.000,1.000,0,5.000,0
"03/08/08","00:12:59",6617.000,"cc",28330.293,6.00,6,0.100,5333.000,0.200,1181.000,0.300,92.000,0.500,11.000,1.000,0,5.000,0
"03/08/08","00:13:05",7042.000,"cc",28293.611,6.00,6,0.100,5742.000,0.200,1228.000,0.300,62.000,0.500,10.000,1.000,0,5.000,0
"03/08/08","00:13:11",6222.000,"cc",28353.697,6.00,6,0.100,5134.000,0.200,1028.000,0.300,56.000,0.500,4.000,1.000,0,5.000,0
"03/08/08","00:13:17",6928.000,"cc",28313.600,6.00,6,0.100,5699.000,0.200,1142.000,0.300,65.000,0.500,20.000,1.000,2.000,5.000,0
"03/08/08","00:13:23",6478.000,"cc",28335.322,6.00,6,0.100,5374.000,0.200,1059.000,0.300,42.000,0.500,3.000,1.000,0,5.000,0
"03/08/08","00:13:29",6887.000,"cc",28285.606,6.00,6,0.100,5633.000,0.200,1185.000,0.300,58.000,0.500,10.000,1.000,1.000,5.000,0
"03/08/08","00:13:35",6779.000,"cc",28305.045,6.00,6,0.100,5589.000,0.200,1130.000,0.300,55.000,0.500,5.000,1.000,0,5.000,0
"03/08/08","00:13:41",6538.000,"cc",28269.283,6.00,6,0.100,5351.000,0.200,1127.000,0.300,50.000,0.500,10.000,1.000,0,5.000,0
"03/08/08","00:13:47",6989.000,"cc",28361.246,6.00,6,0.100,5716.000,0.200,1181.000,0.300,73.000,0.500,19.000,1.000,0,5.000,0
"03/08/08","00:13:53",7127.000,"cc",28291.492,6.00,6,0.100,5809.000,0.200,1228.000,0.300,81.000,0.500,8.000,1.000,1.000,5.000,0
"03/08/08","00:13:59",7105.000,"cc",28295.084,6.00,6,0.100,5849.000,0.200,1205.000,0.300,43.000,0.500,8.000,1.000,0,5.000,0
"03/08/08","00:14:05",7037.000,"cc",28307.393,6.00,6,0.100,5777.000,0.200,1207.000,0.300,50.000,0.500,3.000,1.000,0,5.000,0
"03/08/08","00:14:11",7090.000,"cc",28316.977,6.00,6,0.100,5865.000,0.200,1153.000,0.300,59.000,0.500,13.000,1.000,0,5.000,0
"03/08/08","00:14:17",6943.000,"cc",28336.869,6.00,6,0.100,5663.000,0.200,1222.000,0.300,56.000,0.500,2.000,1.000,0,5.000,0
"03/08/08","00:14:23",7374.000,"cc",28327.065,6.00,6,0.100,5984.000,0.200,1319.000,0.300,64.000,0.500,6.000,1.000,1.000,5.000,0
"03/08/08","00:14:29",7572.000,"cc",28354.217,6.00,6,0.100,6160.000,0.200,1341.000,0.300,55.000,0.500,16.000,1.000,0,5.000,0
"03/08/08","00:14:35",7206.000,"cc",28319.027,6.00,6,0.100,5939.000,0.200,1217.000,0.300,43.000,0.500,7.000,1.000,0,5.000,0
"03/08/08","00:14:41",7368.000,"cc",28332.430,6.00,6,0.100,6082.000,0.200,1224.000,0.300,52.000,0.500,10.000,1.000,0,5.000,0
"03/08/08","00:14:47",6525.000,"cc",28337.158,6.00,6,0.100,5432.000,0.200,1055.000,0.300,37.000,0.500,1.000,1.000,0,5.000,0
"03/08/08","00:14:53",7558.000,"cc",28294.307,6.00,6,0.100,6119.000,0.200,1343.000,0.300,75.000,0.500,19.000,1.000,2.000,5.000,0
"03/08/08","00:14:59",7361.000,"cc",28258.629,6.00,6,0.100,5980.000,0.200,1321.000,0.300,54.000,0.500,6.000,1.000,0,5.000,0
"03/08/08","00:15:05",7725.000,"cc",28381.039,6.00,6,0.100,6324.000,0.200,1316.000,0.300,78.000,0.500,6.000,1.000,1.000,5.000,0
"03/08/08","00:15:11",7790.000,"cc",28345.221,6.00,6,0.100,6329.000,0.200,1381.000,0.300,74.000,0.500,6.000,1.000,0,5.000,0
"03/08/08","00:15:17",7822.000,"cc",28274.637,6.00,6,0.100,6338.000,0.200,1383.000,0.300,92.000,0.500,9.000,1.000,0,5.000,0
"03/08/08","00:15:23",7580.000,"cc",28275.818,6.00,6,0.100,6108.000,0.200,1397.000,0.300,71.000,0.500,4.000,1.000,0,5.000,0
"03/08/08","00:15:29",7901.000,"cc",28363.891,6.00,6,0.100,6376.000,0.200,1456.000,0.300,61.000,0.500,8.000,1.000,0,5.000,0
"03/08/08","00:15:35",7972.000,"cc",28285.424,6.00,6,0.100,6397.000,0.200,1475.000,0.300,93.000,0.500,6.000,1.000,1.000,5.000,0
"03/08/08","00:15:41",6772.000,"cc",28356.514,6.00,6,0.100,5618.000,0.200,1108.000,0.300,45.000,0.500,1.000,1.000,0,5.000,0
"03/08/08","00:15:47",6820.000,"cc",28280.463,6.00,6,0.100,5576.000,0.200,1191.000,0.300,47.000,0.500,6.000,1.000,0,5.000,0
"03/08/08","00:15:53",6819.000,"cc",28303.926,6.00,6,0.100,5573.000,0.200,1202.000,0.300,41.000,0.500,3.000,1.000,0,5.000,0
"03/08/08","00:15:59",7086.000,"cc",28361.797,6.00,6,0.100,5807.000,0.200,1204.000,0.300,61.000,0.500,14.000,1.000,0,5.000,0
"03/08/08","00:16:05",7038.000,"cc",28314.889,6.00,6,0.100,5747.000,0.200,1216.000,0.300,71.000,0.500,4.000,1.000,0,5.000,0
"03/08/08","00:16:11",7640.000,"cc",28365.141,6.00,6,0.100,6227.000,0.200,1363.000,0.300,48.000,0.500,2.000,1.000,0,5.000,0
"03/08/08","00:16:17",7412.000,"cc",28268.945,6.00,6,0.100,6108.000,0.200,1244.000,0.300,54.000,0.500,6.000,1.000,0,5.000,0
"03/08/08","00:16:23",6935.000,"cc",28217.533,6.00,6,0.100,5691.000,0.200,1198.000,0.300,38.000,0.500,8.000,1.000,0,5.000,0
"03/08/08","00:16:29",6283.000,"cc",28321.832,6.00,6,0.100,5291.000,0.200,943.000,0.300,43.000,0.500,6.000,1.000,0,5.000,0
"03/08/08","00:16:35",6406.000,"cc",28328.066,6.00,6,0.100,5308.000,0.200,1056.000,0.300,37.000,0.500,5.000,1.000,0,5.000,0
"03/08/08","00:16:41",7124.000,"cc",28312.578,6.00,6,0.100,5879.000,0.200,1189.000,0.300,50.000,0.500,6.000,1.000,0,5.000,0
"03/08/08","00:16:47",7447.000,"cc",28299.779,6.00,6,0.100,6076.000,0.200,1316.000,0.300,53.000,0.500,2.000,1.000,0,5.000,0
"03/08/08","00:16:53",6513.000,"cc",28379.307,6.00,6,0.100,5420.000,0.200,1051.000,0.300,38.000,0.500,4.000,1.000,0,5.000,0
"03/08/08","00:16:59",6627.000,"cc",28334.393,6.00,6,0.100,5458.000,0.200,1118.000,0.300,45.000,0.500,6.000,1.000,0,5.000,0
"03/08/08","00:17:05",6652.000,"cc",28310.834,6.00,6,0.100,5537.000,0.200,1073.000,0.300,41.000,0.500,1.000,1.000,0,5.000,0
"03/08/08","00:17:11",7101.000,"cc",28244.910,6.00,6,0.100,5837.000,0.200,1198.000,0.300,59.000,0.500,7.000,1.000,0,5.000,0
"03/08/08","00:17:17",7382.000,"cc",28331.666,6.00,6,0.100,6039.000,0.200,1274.000,0.300,65.000,0.500,4.000,1.000,0,5.000,0
"03/08/08","00:17:23",7810.000,"cc",28341.566,6.00,6,0.100,6310.000,0.200,1433.000,0.300,61.000,0.500,6.000,1.000,0,5.000,0
"03/08/08","00:17:29",8130.000,"cc",28330.963,6.00,6,0.100,6634.000,0.200,1419.000,0.300,67.000,0.500,10.000,1.000,0,5.000,0
"03/08/08","00:17:35",7268.000,"cc",28292.250,6.00,6,0.100,5925.000,0.200,1288.000,0.300,50.000,0.500,4.000,1.000,1.000,5.000,0
"03/08/08","00:17:41",7537.000,"cc",28308.734,6.00,6,0.100,6205.000,0.200,1275.000,0.300,47.000,0.500,10.000,1.000,0,5.000,0